#timestamp,LO_Frequency,Hit 
1504407615.9,286047003.7,N
1504407635.7,286047003.4,N
1504407655.6,286047001.5,N
1504407675.4,286047000.6,N
1504407695.2,286047001.0,N
1504407715.0,286046998.6,N
1504407716.0,286046998.6,N
1504407735.8,286046996.8,N
1504407755.6,286046997.8,N
1504407775.4,286046998.6,N
1504407795.3,286046998.3,N
1504407815.1,286046997.7,N
1504407835.8,286046998.7,N
1504407855.7,286047000.6,N
1504407875.5,286047001.5,N
1504407895.3,286047002.4,N
1504407915.2,286047004.4,N
1504407935.9,286046999.7,N
1504407955.7,286047000.1,N
1504407975.6,286047001.6,N
1504407995.4,286047000.4,N
1504408015.2,286047001.9,N
1504408035.0,286047003.2,N
1504408036.0,286047003.2,N
1504408055.8,286047005.6,N
1504408075.6,286047001.8,N
1504408095.4,286047004.0,N
1504408115.3,286047003.3,N
1504408135.1,286047004.1,N
1504408155.8,286047003.8,N
1504408175.7,286047004.3,N
1504408195.5,286046998.5,N
1504408215.3,286047004.0,N
1504408235.2,286047003.1,N
1504408255.9,286047005.4,N
1504408275.7,286047000.1,N
1504408295.6,286046999.3,N
1504408315.4,286047000.4,N
1504408335.2,286047001.4,N
1504408355.1,286047004.1,N
1504408356.0,286047004.1,N
1504408375.8,286046999.9,N
1504408395.6,286046999.4,N
1504408415.4,286046998.8,N
1504408435.3,286047000.5,N
1504408455.1,286046999.2,N
1504408475.8,286046999.4,N
1504408495.7,286046998.1,N
1504408515.5,286046998.6,N
1504408535.3,286047003.7,N
1504408555.2,286046999.7,N
1504408575.9,286046998.1,N
1504408595.7,286046998.7,N
1504408615.6,286046996.6,N
1504408635.4,286047001.1,N
1504408655.2,286046997.2,N
1504408675.1,286046998.8,N
1504408676.0,286046998.8,N
1504408695.8,286046999.8,N
1504408715.6,286047001.4,N
1504408735.5,286047002.2,N
1504408755.3,286047000.6,N
1504408775.1,286047001.4,N
1504408795.8,286047005.9,N
1504408815.7,286047006.3,N
1504408835.5,286047005.4,N
1504408855.3,286047000.1,N
1504408875.2,286046999.9,N
1504408895.9,286047001.2,N
1504408915.7,286046999.8,N
1504408935.6,286046999.0,N
1504408955.4,286047002.8,N
1504408975.2,286047002.5,N
1504408995.1,286047000.7,N
1504408996.0,286047000.7,N
1504409015.8,286047000.4,N
1504409035.6,286047001.6,N
1504409055.5,286047002.9,N
1504409075.3,286047008.4,P
1504409095.1,286047001.9,N
1504409115.9,286046999.7,N
1504409135.7,286046998.7,N
1504409155.5,286047002.4,N
1504409175.4,286047000.7,N
1504409195.2,286046999.0,N
1504409215.0,286046999.4,N
1504409215.9,286046999.4,N
1504409235.7,286046997.0,N
1504409255.6,286046996.7,N
1504409275.4,286046998.6,N
1504409295.2,286047001.2,N
1504409315.1,286047002.5,N
1504409316.0,286047002.5,N
1504409335.8,286046999.8,N
1504409355.6,286047000.0,N
1504409375.5,286047004.3,N
1504409395.3,286047002.4,N
1504409415.1,286046999.7,N
1504409435.9,286047000.8,N
1504409455.7,286047002.7,N
1504409475.5,286047000.4,N
1504409495.4,286047002.2,N
1504409515.2,286047007.3,P
1504409535.0,286047008.7,N
1504409535.9,286047008.7,N
1504409555.8,286047007.2,N
1504409575.6,286047003.9,N
1504409595.4,286047002.6,N
1504409615.3,286046999.7,N
1504409635.1,286046999.7,N
1504409636.0,286046999.7,N
1504409655.8,286047000.7,N
1504409675.6,286046997.0,N
1504409695.5,286046999.6,N
1504409715.3,286046998.9,N
1504409735.1,286047000.5,N
1504409755.9,286047001.0,N
1504409775.7,286046998.2,N
1504409795.5,286046997.0,N
1504409815.4,286046997.7,N
1504409835.2,286046999.8,N
1504409855.0,286046999.4,N
1504409855.9,286046999.4,N
1504409875.8,286046998.9,N
1504409895.6,286047001.2,N
1504409915.4,286047001.1,N
1504409935.3,286046997.0,N
1504409955.1,286046996.5,N
1504409956.0,286046996.5,N
1504409975.8,286047002.3,N
1504409995.6,286047001.8,N
1504410015.5,286047002.5,N
1504410035.3,286047001.8,N
1504410055.1,286047001.1,N
1504410075.9,286047000.7,N
1504410095.7,286046998.2,N
1504410115.5,286047000.9,N
1504410135.4,286046998.4,N
1504410155.2,286046996.9,N
1504410175.0,286046999.1,N
1504410175.9,286046999.1,N
1504410195.8,286046997.2,N
1504410215.6,286046996.5,N
1504410235.4,286046996.6,N
1504410255.3,286046998.9,N
1504410275.1,286046999.4,N
1504410276.0,286046999.4,N
1504410295.8,286046999.4,N
1504410315.7,286046996.7,N
1504410335.5,286046999.9,N
1504410355.3,286046998.6,N
1504410375.1,286046997.9,N
1504410395.9,286046999.6,N
1504410415.7,286046998.2,N
1504410435.5,286046998.9,N
1504410455.4,286046998.3,N
1504410475.2,286046999.2,N
1504410495.0,286046996.6,N
1504410495.9,286046996.6,N
1504410515.8,286046998.8,N
1504410535.6,286046998.2,N
1504410555.4,286047004.6,N
1504410575.3,286047011.2,P
1504410595.1,286047012.7,N
1504410615.8,286047010.3,N
1504410635.7,286047008.3,N
1504410655.5,286047007.4,N
1504410675.3,286047006.9,N
1504410695.2,286047003.1,N
1504410715.9,286047008.2,N
1504410735.7,286047009.2,N
1504410755.6,286047006.0,N
1504410775.4,286047005.1,N
1504410795.2,286047005.0,N
1504410815.0,286047004.3,N
1504410815.9,286047004.3,N
1504410835.8,286047001.3,N
1504410855.6,286047001.5,N
1504410875.4,286047005.7,N
1504410895.3,286047003.7,N
1504410915.1,286047011.8,P
1504410935.8,286047007.7,N
1504410955.7,286047010.3,P
1504410975.5,286047007.1,P
1504410995.3,286047002.1,N
1504411015.2,286046998.4,N
1504411035.0,286046997.3,N
1504411035.9,286046997.3,N
1504411055.7,286046995.8,N
1504411075.6,286046995.8,N
1504411095.4,286046992.2,N
1504411115.2,286046997.3,N
1504411135.1,286046993.7,N
1504411136.0,286046993.7,N
1504411155.8,286046994.2,N
1504411175.6,286046993.8,N
1504411195.5,286046994.2,N
